#timestamp,LO_Frequency,Hit 
1500120015.2,286046995.0,N
1500120035.1,286046994.9,N
1500120036.0,286046994.9,N
1500120055.8,286046997.6,N
1500120075.6,286046997.7,N
1500120095.5,286046996.7,N
1500120115.3,286046997.7,N
1500120135.2,286046997.2,N
1500120155.9,286046997.9,N
1500120175.7,286046999.1,N
1500120195.6,286046996.5,N
1500120215.4,286046997.4,N
1500120235.2,286046998.2,N
1500120255.1,286046999.4,N
1500120256.0,286046999.4,N
1500120275.8,286046999.4,N
1500120295.7,286046996.5,N
1500120315.5,286046998.9,N
1500120335.3,286046996.7,N
1500120355.2,286046999.3,N
1500120375.0,286046996.9,N
1500120375.9,286046996.9,N
1500120395.7,286046997.3,N
1500120415.6,286046997.6,N
1500120435.4,286046997.8,N
1500120455.3,286046997.0,N
1500120475.1,286046997.6,N
1500120476.0,286046997.6,N
1500120495.8,286046997.1,N
1500120515.7,286046996.7,N
1500120535.5,286046996.5,N
1500120555.3,286046999.6,N
1500120575.2,286046997.5,N
1500120595.0,286046995.3,N
1500120595.9,286046995.3,N
1500120615.8,286046995.7,N
1500120635.6,286046995.5,N
1500120655.4,286046995.8,N
1500120675.3,286046996.0,N
1500120695.1,286046995.9,N
1500120715.8,286046993.5,N
1500120735.7,286046993.5,N
1500120755.5,286046994.0,N
1500120775.4,286046991.7,N
1500120795.2,286046994.1,N
1500120815.0,286046991.8,N
1500120815.9,286046991.8,N
1500120835.8,286046994.7,N
1500120855.6,286046991.8,N
1500120875.4,286046990.1,N
1500120895.3,286046994.8,N
1500120915.1,286046992.1,N
1500120935.9,286046992.6,N
1500120955.7,286046992.0,N
1500120975.5,286046992.4,N
1500120995.4,286046992.7,N
1500121015.2,286046992.4,N
1500121035.0,286046992.5,N
1500121035.9,286046992.5,N
1500121055.8,286046993.2,N
1500121075.6,286046991.3,N
1500121095.5,286046991.3,N
1500121115.3,286046990.4,N
1500121135.1,286046989.0,N
1500121155.9,286046991.5,N
1500121175.7,286046991.5,N
1500121195.5,286046988.5,N
1500121215.4,286046991.6,N
1500121235.2,286046988.5,N
1500121255.0,286046991.2,N
1500121256.0,286046991.2,N
1500121275.8,286046988.6,N
1500121295.6,286046988.5,N
1500121315.5,286046988.9,N
1500121335.3,286046989.2,N
1500121355.1,286046987.0,N
1500121375.9,286046989.8,N
1500121395.7,286046989.0,N
1500121415.6,286046987.6,N
1500121435.4,286046987.3,N
1500121455.2,286046989.8,N
1500121475.1,286046987.8,N
1500121476.0,286046987.8,N
1500121495.8,286046987.1,N
1500121515.6,286046989.6,N
1500121535.5,286046987.5,N
1500121555.3,286046990.0,N
1500121575.2,286046987.3,N
1500121595.9,286046987.3,N
1500121615.7,286046987.3,N
1500121635.6,286046987.6,N
1500121655.4,286046987.9,N
1500121675.2,286046988.0,N
1500121695.1,286046988.2,N
1500121696.0,286046988.2,N
1500121715.8,286046988.3,N
1500121735.7,286046986.9,N
1500121755.5,286046990.0,N
1500121775.3,286046989.8,N
1500121795.2,286046987.3,N
1500121815.0,286046987.8,N
1500121815.9,286046987.8,N
1500121835.7,286046985.4,N
1500121855.6,286046990.0,N
1500121875.4,286046989.8,N
1500121895.3,286046989.4,N
1500121915.1,286046987.2,N
1500121916.0,286046987.2,N
1500121935.8,286046986.9,N
1500121955.7,286046987.7,N
1500121975.5,286046988.1,N
1500121995.4,286046987.2,N
1500122015.2,286046987.6,N
1500122035.0,286046986.9,N
1500122035.9,286046986.9,N
1500122055.8,286046990.0,N
1500122075.6,286046987.8,N
1500122095.4,286046987.0,N
1500122115.3,286046987.4,N
1500122135.1,286046988.4,N
1500122155.9,286046985.8,N
1500122175.7,286046989.8,N
1500122195.5,286046986.9,N
1500122215.4,286046988.4,N
1500122235.2,286046986.5,N
1500122255.1,286046985.3,N
1500122256.0,286046985.3,N
1500122275.8,286046988.1,N
1500122295.6,286046985.3,N
1500122315.5,286046987.4,N
1500122335.3,286046990.0,N
1500122355.1,286046987.2,N
1500122375.9,286046986.4,N
1500122395.7,286046986.4,N
1500122415.6,286046988.0,N
1500122435.4,286046986.4,N
1500122455.2,286046988.0,N
1500122475.1,286046985.5,N
1500122476.0,286046985.5,N
1500122495.8,286046986.1,N
1500122515.6,286046985.5,N
1500122535.5,286046988.1,N
1500122555.3,286046988.3,N
1500122575.2,286046986.0,N
1500122595.9,286046986.7,N
1500122615.7,286046985.9,N
1500122635.6,286046985.7,N
1500122655.4,286046986.0,N
1500122675.2,286046985.8,N
1500122695.1,286046983.7,N
1500122696.0,286046983.7,N
1500122715.8,286046985.5,N
1500122735.7,286046987.7,N
1500122755.5,286046987.1,N
1500122775.3,286046985.5,N
1500122795.2,286046985.7,N
1500122815.0,286046985.6,N
1500122815.9,286046985.6,N
1500122835.7,286046986.3,N
1500122855.6,286046986.7,N
1500122875.4,286046985.7,N
1500122895.3,286046988.4,N
1500122915.1,286046989.6,N
1500122916.0,286046989.6,N
1500122935.8,286046987.5,N
1500122955.7,286046988.1,N
1500122975.5,286046989.7,N
1500122995.3,286046989.1,N
1500123015.2,286046988.8,N
1500123035.0,286046990.9,N
1500123035.9,286046990.9,N
1500123055.8,286046990.8,N
1500123075.6,286046990.4,N
1500123095.4,286046990.4,N
1500123115.3,286046991.2,N
1500123135.1,286046990.4,N
1500123155.9,286046990.2,N
1500123175.7,286046988.8,N
1500123195.5,286046991.6,N
1500123215.4,286046988.6,N
1500123235.2,286046991.0,N
1500123255.0,286046991.4,N
1500123255.9,286046991.4,N
1500123275.8,286046990.2,N
1500123295.6,286046992.9,N
1500123315.5,286046992.5,N
1500123335.3,286046993.2,N
1500123355.1,286046991.1,N
1500123375.9,286046992.6,N
1500123395.7,286046992.6,N
1500123415.5,286046990.2,N
1500123435.4,286046990.2,N
1500123455.2,286046990.7,N
1500123475.1,286046991.3,N
1500123476.0,286046991.3,N
1500123495.8,286046990.1,N
1500123515.6,286046990.9,N
1500123535.5,286046990.3,N
1500123555.3,286046991.6,N
1500123575.1,286046992.7,N
1500123595.9,286046992.9,N
